Location: White Ridge parking lot
(35.4984°N, 106.8413°W)
Time: 08:32:36
(UTC-06:00)

ITAMSAT 1 - Pass Details

Date: 24 September 2019
Orbit: 784 x 797 km, 98.9° (Epoch: 19 October)

Event Time Altitude Azimuth Distance (km) Brightness Sun altitude
Rises 04:57:15 0° 41° (NE) 3,279 11.8 -24.7°
Reaches altitude 10° 05:02:04 10° 81° (E) 2,347 11.2 -23.8°
Maximum altitude 05:02:56 10° 91° (E) 2,320 11.0 -23.6°
Drops below altitude 10° 05:03:47 10° 101° (E) 2,346 10.9 -23.5°
Sets 05:08:34 0° 141° (SE) 3,271 11.2 -22.5°
